User: anonymous   Login
Location: Asheville, NC
(35.6000°N, 82.5500°W)
Time: 21:58:52
(UTC-04:00)
Language:

POLYITAN 1 - Orbit

View from above orbital plane
View from above orbital plane
View from above satellite
View from above satellite

Ground track
Ground track

The orbit data is extracted from the following two-line orbital elements,

1 40042U 14033AJ  18197.31326582 +.00000260 +00000-0 +34063-4 0  9995
2 40042 097.9116 112.7930 0016234 079.1357 281.1685 14.88421476220534
Epoch (UTC): 16 July 2018 07:31:06
Eccentricity: 0.0016234
inclination: 97.9116°
perigee height: 591 km
apogee height: 614 km
right ascension of ascending node: 112.7930°
argument of perigee: 79.1357°
revolutions per day: 14.88421476
mean anomaly at epoch: 281.1685°
orbit number at epoch: 22053

The dashed part of the orbit path shows where the satellite is in the earth's shadow,  

DLR